Location: Powder Track
(41.8531°N, 72.3584°W)
Time: 02:16:40
(UTC+00:00)

Vanguard 1 Rocket - Pass Details

Date: 13 August 2021
Orbit: 650 x 4226 km, 34.3° (Epoch: 16 September)

Event Time Altitude Azimuth Distance (km) Brightness Sun altitude
Rises 13:49:44 0° 259° (W) 8,451 11.9 41.8°
Reaches altitude 10° 13:55:43 10° 258° (WSW) 7,423 11.8 42.8°
Maximum altitude 14:20:39 69° 182° (S) 3,453 11.3 47.0°
Drops below altitude 10° 14:35:16 10° 103° (ESE) 4,699 11.9 49.4°
Sets 14:38:05 0° 101° (E) 5,343 11.9 49.8°
